Location: Palomar Mountain Lodge
(33.3110°N, 116.8495°W)
Time: 06:38:40
(UTC-07:00)

Cosmos 2227 Rocket - Pass Details

Date: 12 July 2018
Orbit: 837 x 847 km, 71.0° (Epoch: 21 July)

Event Time Altitude Azimuth Distance (km) Brightness Sun altitude
Rises 23:03:50 0° 349° (N) 3,407 6.4 -29.0°
Reaches altitude 10° 23:06:31 10° 358° (N) 2,468 5.4 -29.3°
Enters shadow 23:11:10 34° 53° (NE) 1,361 3.3 -29.7°
